Content
SEND FEEDBACK

Daily
Averages
Monthly
Summary
France

ROUEN, FRANCE


Home > Europe > France
Elevation: 515 feet     Latitude: 49 23N     Longitude: 001 11E

WEATHER
 
SELECT A DAY
Number of Records: 173,480;   Date Range: 7/1/96 - 8/31/14
 
SHARE

PRINT THIS DATA

[ ← Previous Day ]
WEATHER ALMANAC - APRIL 30, 2013
[ Next Day → ]
[ °C ]   °F
Weather ElementAverageHighLow
Temperature49.5 °F60.8 °F (3:30 pm)39.2 °F (5:00 am)
Dewpoint35.9 °F39.2 °F (9:00 am)33.8 °F (12:30 am)
Humidity61 %87 % (5:00 am)29 % (2:00 pm)
Barometer30.15 in30.19 in (2:00 am)30.12 in (4:30 am)
Wind Speed11.8 mph19.6 mph (2:00 pm)
Weather ElementAverage
Visibility7.2 mi
Wind DirectionENE (77 °)

Weather ElementTotal
Precipitation---
Heating Degree Days15 (Base 65)
Averaged from 50 records on April 30, 2013
WEATHER CONDITIONS BREAKOUT
WIND DIRECTION BREAKOUT
WEATHER BY HOUR - APRIL 30, 2013
[ °C ]   °F
Local TimeTemperatureDewpointHumidityBarometerVisibilityWind DirectionWind SpeedGust SpeedPrecipitationEventsConditions
12:30 AM42.8 °F33.8 °F70 %30.15 in6.2 miNorth (350°)5.8 mph
1:00 AM42.8 °F33.8 °F70 %30.15 in6.2 miNorth (360°)5.8 mph
1:30 AM42.8 °F33.8 °F70 %30.15 in6.2 miNorth (360°)8.1 mph
2:00 AM43.0 °F34.0 °F62 %30.19 in22.0 miNorth8.1 mphClear
2:00 AM42.8 °F33.8 °F70 %30.15 in6.2 miNorth (360°)8.1 mph
2:30 AM42.8 °F35.6 °F76 %30.15 in6.2 miNorth (350°)8.1 mph
3:00 AM41.0 °F33.8 °F76 %30.15 in6.2 miNorth (360°)6.9 mph
3:30 AM41.0 °F33.8 °F76 %30.15 in6.2 miNNE (20°)4.6 mph
4:00 AM41.0 °F35.6 °F81 %30.15 in6.2 miNNE (20°)5.8 mph
4:30 AM41.0 °F35.6 °F81 %30.12 in6.2 miNorth (10°)8.1 mph
5:00 AM39.2 °F35.6 °F87 %30.12 in6.2 miNNE (20°)6.9 mph
5:30 AM41.0 °F35.6 °F81 %30.12 in6.2 miNE (40°)6.9 mph
6:00 AM39.2 °F35.6 °F87 %30.12 in6.2 miNNE (30°)6.9 mph
6:30 AM39.2 °F35.6 °F87 %30.15 in6.2 miNE (40°)8.1 mph
7:00 AM39.2 °F35.6 °F87 %30.15 in6.2 miNNE (30°)5.8 mph
7:30 AM39.2 °F35.6 °F87 %30.15 in6.2 miNNE (20°)6.9 mph
8:00 AM41.0 °F37.4 °F87 %30.15 in6.2 miNNE (30°)6.9 mph
8:30 AM42.8 °F37.4 °F81 %30.15 in6.2 miNNE (30°)8.1 mph
9:00 AM44.6 °F39.2 °F81 %30.15 in6.2 miNNE (30°)8.1 mph
9:30 AM46.4 °F39.2 °F76 %30.15 in6.2 miNNE (30°)10.4 mph
10:00 AM48.2 °F37.4 °F66 %30.15 in6.2 miNNE (30°)10.4 mph
10:30 AM48.2 °F37.4 °F66 %30.15 in6.2 miNNE (30°)11.5 mph
11:00 AM51.8 °F39.2 °F62 %30.18 in6.2 miNNE (30°)12.7 mph
11:30 AM51.8 °F39.2 °F62 %30.18 in6.2 miNNE (30°)11.5 mph
12:00 PM53.6 °F39.2 °F58 %30.18 in6.2 miNE (40°)13.8 mph
12:30 PM55.4 °F35.6 °F47 %30.18 in6.2 miNE (50°)16.1 mph
1:00 PM55.4 °F39.2 °F54 %30.18 in6.2 miNE (40°)16.1 mphPartly Cloudy
1:30 PM57.2 °F39.2 °F51 %30.15 in6.2 miENE (60°)18.4 mphMostly Cloudy
2:00 PM58.0 °F35.0 °F29 %30.16 in12.0 miNE (50°)19.6 mphScattered Clouds
2:00 PM57.2 °F35.6 °F44 %30.15 in6.2 miNE (50°)19.6 mphScattered Clouds
2:30 PM57.2 °F33.8 °F41 %30.15 in6.2 miNE (50°)19.6 mph
3:00 PM57.2 °F33.8 °F41 %30.15 in6.2 miENE (60°)19.6 mphScattered Clouds
3:30 PM60.8 °F37.4 °F42 %30.15 in6.2 miNE (50°)16.1 mph
4:00 PM59.0 °F35.6 °F42 %30.12 in6.2 miNE (50°)18.4 mph
4:30 PM57.2 °F35.6 °F44 %30.12 in6.2 miNE (50°)17.3 mph
5:00 PM57.2 °F35.6 °F44 %30.12 in6.2 miNE (40°)17.3 mph
5:30 PM57.2 °F35.6 °F44 %30.12 in6.2 miENE (60°)17.3 mph
6:00 PM57.2 °F35.6 °F44 %30.12 in6.2 miENE (60°)15.0 mph
6:30 PM55.4 °F35.6 °F47 %30.12 in6.2 miENE (60°)15.0 mph
7:00 PM55.4 °F35.6 °F47 %30.12 in6.2 miNE (50°)11.5 mph
7:30 PM55.4 °F35.6 °F47 %30.12 in6.2 miENE (60°)12.7 mph
8:00 PM55.0 °F36.0 °F37 %30.14 in34.0 miNE (40°)15.0 mphClear
8:00 PM55.4 °F35.6 °F47 %30.12 in6.2 miNE (40°)15.0 mph
8:30 PM53.6 °F35.6 °F51 %30.12 in6.2 miNE (40°)12.7 mph
9:00 PM53.6 °F35.6 °F51 %30.12 in6.2 miNE (40°)12.7 mph
9:30 PM53.6 °F33.8 °F47 %30.15 in6.2 miNE (40°)13.8 mph
10:00 PM51.8 °F35.6 °F54 %30.15 in6.2 miNNE (30°)11.5 mph
10:30 PM51.8 °F35.6 °F54 %30.15 in6.2 miNNE (30°)12.7 mph
11:00 PM50.0 °F35.6 °F58 %30.18 in6.2 miENE (60°)11.5 mph
11:30 PM50.0 °F35.6 °F58 %30.18 in6.2 miNE (40°)10.4 mph
Hourly data recorded from LFOP, located miles away from Rouen, France







STORIES FROM OUR PARTNERS